Regional Weather Roundup
Issued by NWS Kansas City/Pleasant Hill, MO

Home | Current Version | Previous Version | Text Only | Print | Product List | Glossary On
Versions: 1 2 3 4 5 6 7 8 9 10 11 12 13 14 15 16 17 18 19 20 21 22 23 24 25 26 27 28 29 30 31 32 33 34 35 36 37 38 39 40 41 42 43 44 45 46 47 48 49 50
000
ASUS43 KEAX 190210
RWREAX

WEATHER ROUNDUP FOR EASTERN KANSAS AND NORTHWEST MISSOURI
NATIONAL WEATHER SERVICE KANSAS CITY/PLEASANT HILL MO
800 PM CST SUN FEB 18 2018

KSZ040-057-103>105-MOZ028-029-037-043-190300-
...KANSAS CITY METROPOLITAN AREA...

CITY           SKY/WX    TMP DP  RH WIND       PRES   REMARKS
K.C. INTL      CLOUDY    55  40  56 S21G31    29.69S
K.C. DOWNTOWN  CLOUDY    57  40  52 S22       29.71S
LEES SUMMIT    CLOUDY    55  39  54 S17G31    29.73S
OLATHE - IXD   CLOUDY    53  43  68 S16G33    29.72R
OLATHE - OJC   CLOUDY    53  42  66 S16G26    29.73R
LAWRENCE       CLOUDY    54  43  66 S17G29    29.70F

$$

MOZ001>008-011>017-020>025-030>033-038>040-044>046-053-054-190300-
...NORTHERN AND CENTRAL MISSOURI...

CITY           SKY/WX    TMP DP  RH WIND       PRES   REMARKS
ST. JOSEPH     CLOUDY    54  41  61 S21G29    29.67S
MOSBY          CLOUDY    55  34  44 S10G16    29.71F
WARRENSBURG    CLOUDY    52  34  50 S15       29.74R
WHITEMAN AFB   CLOUDY    52  35  52 S18G25    29.70F
CLINTON        CLOUDY    54  36  50 S17       29.77S
SEDALIA        CLOUDY    54  39  57 S20G28    29.77F
WARSAW         NOT AVBL
CHILLICOTHE      N/A     53  31  42 S15       29.74R
KIRKSVILLE     CLOUDY    48  31  51 S13       29.74R

$$

MOZ041-047>049-056>058-063>065-088>090-097-190300-
...EASTERN AND SOUTHERN MISSOURI...

CITY           SKY/WX    TMP DP  RH WIND       PRES   REMARKS
ST. LOUIS INTL CLOUDY    48  35  60 S12       29.93F
SPIRIT OF STL  PTCLDY    50  34  54 S10G17    29.90F
COLUMBIA       MOCLDY    50  33  52 S23G30    29.82R
JEFFERSON CITY CLOUDY    51  33  50 S13G23    29.85S
ROLLA          PTCLDY    47  37  68 S16G28    29.88S
OSAGE BEACH    CLOUDY    51  38  60 SE10      29.84F
SPRINGFIELD    CLOUDY    51  43  74 S17G28    29.84S
BRANSON        CLOUDY    48  45  87 SE12G22   29.92F
JOPLIN         CLOUDY    55  49  80 S21G32    29.78F
WEST PLAINS    CLOUDY    47  41  80 S12G21    29.96F

$$

IAZ060-094-KSZ022-034>040-054-083-096-NEZ052-066-093-190300-
...KANSAS...SOUTHEAST NEBRASKA AND IOWA...

CITY           SKY/WX    TMP DP  RH WIND       PRES   REMARKS
TOPEKA         CLOUDY    53  44  71 S13G23    29.67S
MANHATTAN      CLOUDY    51  43  74 S13       29.61F
EMPORIA        CLOUDY    52  45  77 S30G44    29.66F
CHANUTE        CLOUDY    52  46  80 S22G33    29.75R
WICHITA        CLOUDY    53  48  83 S18G31    29.65S
OMAHA          CLEAR     47  37  68 S9        29.61R
LINCOLN        CLOUDY    45  37  73 SE6       29.60R
FALLS CITY     CLOUDY    53  40  61 S13G23    29.64R
LAMONI         CLOUDY    48  32  53 S10       29.70S
DES MOINES     CLOUDY    45  30  55 S9        29.69S

$$




USA.gov is the U.S. government's official web portal to all federal, state and local government web resources and services.